Location: Newark
(43.9494°N, 6.8108°E)
Time: 11:55:11
(UTC+00:00)

A-11 Canister half - Pass Details

Date: 24 October 2019
Orbit: 1514 x 1685 km, 47.2° (Epoch: 20 November)

Event Time Altitude Azimuth Distance (km) Brightness Sun altitude
Rises 02:15:30 0° 259° (WSW) 4,903 - -39.9°
Reaches altitude 10° 02:18:42 10° 260° (W) 3,899 - -39.4°
Maximum altitude 02:28:42 79° 348° (NNW) 1,643 - -37.8°
Exits shadow 02:28:50 79° 357° (N) 1,644 8.9 -37.7°
Drops below altitude 10° 02:38:21 10° 75° (ENE) 3,768 11.8 -36.2°
Sets 02:41:23 0° 77° (ENE) 4,731 12.6 -35.6°
